Retour au catalogue

SL-8 DEB *

ActifLEO
NORAD 3745·DEBRIS·🇷🇺 Russia

Lancé Mar 15, 1965 depuis Baikonur Cosmodrome

Loading…

Prochains Passages (prochaines 24 heures)

TLE

FraisSource: Space-Track

Époque: Sep 14, 2026, 03:03 UTC

1 03745U 65020ET  26257.12771990 -.00000017  00000-0  48859-3 0  9996
2 03745  56.0163 154.6720 0169921  77.0421  67.4060 12.51041748652117

Suivez SL-8 DEB * en temps réel avec AllMySat

Download on the App Store